Location: El Limón
(10.3059°N, 67.6321°W)
Time: 13:12:00
(UTC+00:00)

Nadezhda 2 Rocket - Pass Details

Date: 19 December 2025
Orbit: 946 x 1011 km, 83.0° (Epoch: 12 January)

Event Time Altitude Azimuth Distance (km) Brightness Sun altitude
Rises 23:18:55 0° 340° (NNW) 3,608 7.5 -15.7°
Reaches altitude 10° 23:21:37 10° 330° (NNW) 2,667 6.9 -16.3°
Maximum altitude 23:26:58 33° 269° (W) 1,550 6.2 -17.5°
Drops below altitude 10° 23:32:24 10° 207° (SSW) 2,697 7.5 -18.8°
Sets 23:35:10 0° 197° (SSW) 3,654 8.1 -19.4°
